CW2640 Weather Reports


Display with metric or nautical units.
time (UTC)temp
F
wind
direction
speed
MPH
gust
MPH
rain 1hr
in
rain 24hr
in
rain mn
in
humidity
%
barometer
mb
20260504081019 46 152 0.0 0.0 0.00 0.00 0.00 99 1017.0
20260504044003 49 187 0.0 0.0 0.00 0.00 0.00 97 1018.7
20260504041000 50 198 0.0 0.0 0.00 0.00 0.00 95 1018.9
20260504033959 51 206 0.0 0.0 0.00 0.00 0.00 92 1018.7
20260504030959 52 210 0.0 0.0 0.00 0.00 0.00 90 1019.0
20260504023958 53 212 0.0 0.0 0.00 0.00 0.00 87 1019.0
20260504020954 55 212 0.0 0.0 0.00 0.00 0.00 85 1018.7
20260504013950 56 216 0.0 0.0 0.00 0.00 0.00 81 1018.5
20260504010949 58 224 0.0 0.0 0.00 0.00 0.00 74 1018.0
20260504003948 61 233 0.0 0.0 0.00 0.00 0.00 63 1018.1
20260504000947 64 241 0.0 0.0 0.00 0.00 0.00 53 1017.9
20260503233944 67 248 0.0 0.0 0.00 0.00 0.00 45 1017.9
20260503230942 68 251 0.0 0.0 0.00 0.00 0.00 45 1018.0
20260503223941 69 252 0.0 0.0 0.00 0.00 0.00 44 1018.0
20260503220937 70 245 0.0 0.0 0.00 0.00 0.00 42 1018.2
20260503213937 71 234 0.0 0.0 0.00 0.00 0.00 43 1018.6
20260503210936 71 152 0.0 0.0 0.00 0.00 0.00 40 1018.7
20260503203933 72 140 0.0 0.0 0.00 0.00 0.00 37 1019.3
20260503200929 71 131 0.0 0.0 0.00 0.00 0.00 42 1019.7
20260503193926 70 110 0.0 0.0 0.00 0.00 0.00 39 1020.5
20260503190921 70 110 0.0 0.0 0.00 0.00 0.00 42 1021.0
20260503183921 69 106 0.0 0.0 0.00 0.00 0.00 45 1021.4
20260503180921 69 106 0.0 0.0 0.00 0.00 0.00 39 1021.9
20260503173920 68 104 0.0 0.0 0.00 0.00 0.00 43 1022.2
20260503170919 67 108 0.0 0.0 0.00 0.00 0.00 42 1022.5
20260503150912 62 86 0.0 0.0 0.00 0.00 0.00 60 1023.2
20260503130904 49 80 0.0 0.0 0.00 0.00 0.00 95 1022.9